Lid_Strength_Index
1 1 1 0 0 0 -0 -0 -0 -0 -1 -1 -1 -0 -0 -0 0 4 9 4 3 -2 0 6 7 7 7 8 9 11 15 16 15 14 13 12 11 11 11 12 11 11 9 11 8
1 1 1 0 0 0 -0 -1 -1 -1 -1 -1 -0 -0 -0 0 5 7 2 -1 -3 -2 7 8 9 8 10 9 9 13 16 15 13 11 11 12 12 11 10 12 12 12 10 10 10
1 1 1 1 0 0 -0 -1 -1 -1 -1 -0 -0 -0 0 1 8 9 -1 -2 -2 0 6 7 7 9 11 9 10 12 14 13 12 11 11 12 12 11 11 13 13 12 11 11 12
0 1 1 1 1 0 -0 -0 -1 -1 -1 0 0 -0 0 5 12 7 -1 -2 -2 5 6 7 9 11 12 12 11 12 11 11 10 10 11 12 11 11 11 11 11 12 12 12 12
0 1 1 1 1 0 -0 -0 -1 -1 -1 0 -0 -0 4 10 8 3 -1 0 4 6 8 9 10 11 13 12 12 11 12 11 10 11 11 11 12 12 11 12 12 11 12 13 14
0 1 1 1 0 0 -0 -0 -1 -1 -0 0 0 0 8 11 4 3 4 6 6 7 8 9 9 9 11 12 13 12 12 11 11 12 12 12 13 13 13 13 12 12 14 14 14
0 0 1 1 0 0 -0 -0 -1 -1 -0 0 1 3 8 8 3 3 5 6 6 7 8 8 8 10 11 12 11 12 13 13 13 13 13 12 14 13 13 12 13 14 14 14 14
0 0 1 1 1 0 -0 -0 -0 -0 0 0 0 5 9 6 4 4 5 6 6 7 7 7 8 9 11 11 12 14 15 16 14 13 13 13 15 12 13 12 14 15 15 15 15
1 1 0 0 1 0 -0 -0 1 0 0 0 5 8 9 5 7 7 7 7 7 8 8 7 9 11 12 14 16 17 18 18 15 13 14 15 15 12 12 13 15 16 16 15 15
2 2 2 1 1 1 0 0 1 2 3 3 5 10 9 10 9 8 8 8 9 10 10 11 12 14 15 16 18 18 19 18 18 15 15 16 15 13 14 14 16 17 16 16 16
1 1 1 1 1 1 2 5 7 7 7 8 9 9 9 9 8 9 8 9 9 12 14 13 15 16 15 15 16 17 18 18 17 14 16 15 15 14 15 16 16 16 16 16 16
1 1 1 1 0 -0 3 6 6 7 9 6 7 8 8 9 11 10 8 11 12 14 14 15 17 14 14 15 16 17 18 18 16 15 15 16 15 16 15 16 16 16 16 16 17
2 2 2 2 2 2 4 5 5 6 10 8 8 8 8 9 10 10 10 12 14 15 15 16 14 13 14 16 17 17 18 18 16 16 16 17 17 17 16 15 15 16 16 16 17
1 2 2 2 3 3 5 3 6 7 13 12 10 10 10 9 11 10 10 12 14 14 15 15 14 14 16 16 15 18 15 15 16 17 19 17 20 18 17 17 16 16 17 17 17
1 2 2 1 4 5 5 6 7 8 20 12 12 9 10 10 12 13 11 12 15 14 14 15 15 16 15 15 14 16 15 16 17 18 19 19 20 19 17 18 17 17 17 17 17
3 2 2 3 4 4 6 6 7 13 19 14 13 14 13 13 13 13 13 12 12 14 15 15 15 14 14 15 14 15 16 17 18 19 22 19 18 20 18 17 17 16 16 16 16
3 3 3 2 5 5 5 6 13 18 13 15 16 15 14 15 15 14 15 16 16 17 17 16 16 16 15 16 16 16 17 20 22 22 21 19 20 18 16 16 15 16 16 16 16
3 3 4 2 3 5 5 9 17 14 14 14 15 15 16 15 15 15 16 16 15 17 18 18 19 15 14 15 16 17 17 20 24 24 22 19 20 17 16 16 15 14 15 15 16
3 3 3 3 4 4 8 15 15 14 12 15 15 17 17 15 16 16 17 17 15 16 17 18 17 16 16 15 15 17 18 16 20 27 24 19 18 16 16 17 16 16 15 16 15
4 4 5 2 3 5 10 13 12 10 11 13 15 15 18 16 17 18 18 16 15 14 14 15 18 16 15 15 15 15 14 18 19 24 26 20 20 18 17 17 16 16 16 15 15
4 7 5 2 4 7 13 12 10 9 10 12 13 14 16 15 16 18 17 15 14 15 13 14 15 17 15 16 16 16 17 17 17 19 23 25 21 16 15 15 16 15 14 14 14
7 10 6 2 9 9 12 10 9 9 10 11 11 12 14 14 16 17 16 14 13 12 15 13 15 20 17 16 16 16 16 16 18 20 21 20 19 15 15 14 14 14 13 13 13
9 10 7 7 13 12 10 10 10 12 11 12 12 12 12 13 14 15 15 13 12 12 13 13 17 23 20 17 17 17 16 16 16 18 22 21 19 14 15 15 14 14 13 13 13
9 12 10 9 10 11 12 12 12 11 11 11 11 12 13 14 13 15 15 14 13 13 11 11 16 18 19 18 17 18 17 16 17 21 20 17 16 16 15 14 14 13 13 13 13
9 11 11 14 12 11 11 12 13 13 11 11 12 12 12 14 13 15 15 14 13 11 13 13 18 18 18 17 17 17 17 17 18 16 17 15 16 15 13 12 12 12 13 14 13
11 12 11 12 10 11 12 13 14 13 12 13 13 12 12 14 13 16 14 14 14 14 14 15 18 18 20 17 17 18 17 17 16 17 17 17 17 14 13 13 14 13 14 14 13
11 11 12 12 12 12 13 13 13 11 11 11 11 12 13 12 12 13 13 12 12 14 15 15 17 19 19 20 19 19 18 17 17 16 15 17 14 16 16 15 14 15 15 14 12